TimeEDT,TemperatureF,Dew PointF,Humidity,Sea Level PressureIn,VisibilityMPH,Wind Direction,Wind SpeedMPH,Gust SpeedMPH,PrecipitationIn,Events,Conditions,WindDirDegrees,DateUTC
12:14 AM,16.7,8.8,71,29.79,10.0,WSW,12.7,-,N/A,,Scattered Clouds,250,2013-03-21 04:14:00
12:34 AM,16.5,9.1,73,29.79,10.0,WSW,12.7,-,N/A,,Clear,250,2013-03-21 04:34:00
12:54 AM,16.3,9.3,74,29.78,10.0,West,11.5,-,N/A,,Clear,260,2013-03-21 04:54:00
1:14 AM,15.8,9.5,76,29.78,10.0,WSW,10.4,-,N/A,,Clear,250,2013-03-21 05:14:00
1:34 AM,15.6,10.0,79,29.77,10.0,WSW,10.4,-,N/A,Snow,Light Snow,250,2013-03-21 05:34:00
1:54 AM,14.9,10.4,82,29.77,10.0,WSW,10.4,-,N/A,Snow,Light Snow,250,2013-03-21 05:54:00
2:14 AM,14.7,10.6,84,29.76,7.0,WSW,9.2,-,N/A,Snow,Light Snow,250,2013-03-21 06:14:00
2:35 AM,16.3,12.7,86,29.76,7.0,West,8.1,-,N/A,Snow,Light Snow,260,2013-03-21 06:35:00
2:54 AM,17.2,14.4,88,29.76,2.0,WSW,9.2,-,N/A,Snow,Light Snow,250,2013-03-21 06:54:00
3:14 AM,17.8,14.9,88,29.76,7.0,West,6.9,-,N/A,Snow,Light Snow,260,2013-03-21 07:14:00
3:35 AM,18.1,15.1,88,29.75,10.0,West,8.1,-,N/A,Snow,Light Snow,260,2013-03-21 07:35:00
3:54 AM,18.9,15.8,88,29.75,5.0,West,9.2,-,N/A,Snow,Light Snow,270,2013-03-21 07:54:00
4:14 AM,19.6,16.5,88,29.74,7.0,West,11.5,-,N/A,,Overcast,280,2013-03-21 08:14:00
4:35 AM,20.3,17.1,87,29.74,10.0,West,11.5,-,N/A,,Overcast,280,2013-03-21 08:35:00
4:54 AM,20.7,17.4,87,29.74,10.0,West,9.2,-,N/A,,Overcast,280,2013-03-21 08:54:00
5:14 AM,21.4,18.1,87,29.74,10.0,WNW,10.4,-,N/A,,Overcast,290,2013-03-21 09:14:00
5:35 AM,22.5,19.2,87,29.74,10.0,West,8.1,-,N/A,,Overcast,280,2013-03-21 09:35:00
5:54 AM,23.0,20.3,89,29.74,4.0,West,6.9,-,N/A,Snow,Light Snow,280,2013-03-21 09:54:00
6:14 AM,23.0,20.1,89,29.74,7.0,WNW,8.1,-,N/A,Snow,Light Snow,290,2013-03-21 10:14:00
6:35 AM,22.8,20.1,89,29.74,10.0,West,8.1,-,N/A,Snow,Light Snow,280,2013-03-21 10:35:00
6:54 AM,22.1,19.4,89,29.75,10.0,West,6.9,-,N/A,,Mostly Cloudy,280,2013-03-21 10:54:00
7:14 AM,21.2,18.9,91,29.75,10.0,WNW,6.9,-,N/A,,Scattered Clouds,290,2013-03-21 11:14:00
7:34 AM,21.7,19.2,90,29.75,10.0,WNW,8.1,-,N/A,,Scattered Clouds,300,2013-03-21 11:34:00
7:54 AM,23.0,20.3,89,29.76,10.0,WNW,6.9,-,N/A,,Overcast,290,2013-03-21 11:54:00
8:14 AM,23.9,21.0,89,29.76,10.0,West,6.9,-,N/A,,Overcast,280,2013-03-21 12:14:00
8:34 AM,24.3,21.0,87,29.76,10.0,WNW,8.1,-,N/A,,Overcast,300,2013-03-21 12:34:00
8:54 AM,24.8,20.7,84,29.77,10.0,WNW,9.2,-,N/A,,Mostly Cloudy,300,2013-03-21 12:54:00
9:14 AM,25.7,20.8,82,29.77,10.0,NW,11.5,-,N/A,,Scattered Clouds,320,2013-03-21 13:14:00
9:34 AM,25.7,21.0,82,29.78,7.0,NW,10.4,16.1,N/A,,Mostly Cloudy,320,2013-03-21 13:34:00
9:54 AM,26.2,20.8,80,29.78,10.0,NW,10.4,20.7,N/A,,Overcast,320,2013-03-21 13:54:00
10:14 AM,26.4,19.8,76,29.78,10.0,NNW,11.5,21.9,N/A,,Overcast,330,2013-03-21 14:14:00
10:34 AM,26.6,19.2,74,29.78,10.0,NNW,15.0,-,N/A,,Overcast,330,2013-03-21 14:34:00
10:54 AM,27.3,19.4,72,29.78,10.0,NW,16.1,-,N/A,,Overcast,310,2013-03-21 14:54:00
11:15 AM,27.5,18.9,70,29.78,10.0,NW,16.1,23.0,N/A,,Overcast,320,2013-03-21 15:15:00
11:34 AM,27.5,18.9,70,29.79,10.0,NW,15.0,23.0,N/A,,Overcast,320,2013-03-21 15:34:00
11:54 AM,27.7,19.0,70,29.79,5.0,NNW,15.0,19.6,N/A,Snow,Light Snow,330,2013-03-21 15:54:00
12:15 PM,28.2,16.3,61,29.79,10.0,NW,18.4,23.0,N/A,,Overcast,320,2013-03-21 16:15:00
12:34 PM,28.8,16.5,60,29.79,10.0,NNW,12.7,23.0,N/A,,Overcast,330,2013-03-21 16:34:00
12:54 PM,29.3,16.5,59,29.79,10.0,NW,17.3,24.2,N/A,,Overcast,310,2013-03-21 16:54:00
1:15 PM,29.3,16.2,58,29.79,10.0,NNW,10.4,-,N/A,,Overcast,340,2013-03-21 17:15:00
1:34 PM,29.1,16.7,60,29.79,10.0,NNW,16.1,20.7,N/A,Snow,Light Snow,330,2013-03-21 17:34:00
1:54 PM,29.1,16.9,60,29.79,10.0,NNW,12.7,-,N/A,Snow,Light Snow,330,2013-03-21 17:54:00
2:15 PM,29.3,15.8,57,29.79,10.0,NNW,12.7,19.6,N/A,,Overcast,330,2013-03-21 18:15:00
2:34 PM,29.7,16.3,58,29.79,10.0,NNW,12.7,-,N/A,,Overcast,330,2013-03-21 18:34:00
2:54 PM,30.0,16.5,57,29.79,10.0,NNW,10.4,18.4,N/A,,Overcast,330,2013-03-21 18:54:00
3:14 PM,29.3,17.6,62,29.79,10.0,NW,11.5,16.1,N/A,,Overcast,310,2013-03-21 19:14:00
3:34 PM,30.0,17.8,60,29.79,10.0,NNW,13.8,18.4,N/A,,Overcast,340,2013-03-21 19:34:00
3:54 PM,29.8,17.4,60,29.80,10.0,NNW,9.2,-,N/A,,Overcast,340,2013-03-21 19:54:00
4:14 PM,30.2,16.7,57,29.80,10.0,NW,19.6,-,N/A,,Overcast,310,2013-03-21 20:14:00
4:34 PM,30.0,16.3,57,29.80,10.0,WNW,12.7,19.6,N/A,,Overcast,300,2013-03-21 20:34:00
4:54 PM,30.0,16.2,56,29.81,10.0,NW,12.7,20.7,N/A,,Overcast,310,2013-03-21 20:54:00
5:14 PM,29.8,15.6,56,29.80,10.0,WNW,17.3,24.2,N/A,,Overcast,300,2013-03-21 21:14:00
5:34 PM,29.7,16.5,58,29.81,10.0,WNW,13.8,20.7,N/A,,Overcast,300,2013-03-21 21:34:00
5:54 PM,29.7,15.8,56,29.81,10.0,WNW,13.8,20.7,N/A,,Overcast,300,2013-03-21 21:54:00
6:14 PM,29.3,16.3,58,29.81,10.0,NW,11.5,-,N/A,,Overcast,310,2013-03-21 22:14:00
6:34 PM,28.9,16.5,60,29.81,10.0,NW,16.1,24.2,N/A,,Overcast,310,2013-03-21 22:34:00
6:54 PM,28.4,16.7,62,29.82,10.0,NW,10.4,24.2,N/A,,Overcast,310,2013-03-21 22:54:00
7:14 PM,28.4,17.4,63,29.82,10.0,WNW,13.8,17.3,N/A,,Overcast,300,2013-03-21 23:14:00
7:34 PM,28.0,16.7,62,29.82,10.0,NW,12.7,20.7,N/A,,Overcast,310,2013-03-21 23:34:00
7:55 PM,27.5,17.4,66,29.82,10.0,WNW,9.2,-,N/A,,Overcast,300,2013-03-21 23:55:00
8:14 PM,27.5,17.1,65,29.83,10.0,NW,11.5,-,N/A,,Overcast,310,2013-03-22 00:14:00
8:34 PM,27.3,17.4,66,29.83,10.0,WNW,11.5,-,N/A,,Overcast,300,2013-03-22 00:34:00
8:54 PM,26.6,17.2,68,29.84,10.0,WNW,11.5,20.7,N/A,,Overcast,290,2013-03-22 00:54:00
9:14 PM,26.6,17.2,68,29.84,10.0,WNW,9.2,-,N/A,,Overcast,300,2013-03-22 01:14:00
9:34 PM,26.1,17.1,69,29.84,10.0,NW,16.1,23.0,N/A,,Overcast,310,2013-03-22 01:34:00
9:55 PM,25.7,16.7,69,29.85,10.0,NW,17.3,27.6,N/A,,Overcast,310,2013-03-22 01:55:00
10:14 PM,25.5,16.7,69,29.85,10.0,NW,11.5,23.0,N/A,,Overcast,310,2013-03-22 02:14:00
10:34 PM,25.2,17.1,71,29.85,10.0,NW,11.5,18.4,N/A,,Overcast,310,2013-03-22 02:34:00
10:55 PM,25.2,17.4,72,29.85,10.0,NW,13.8,19.6,N/A,,Overcast,310,2013-03-22 02:55:00
11:14 PM,25.3,17.6,72,29.85,10.0,NW,11.5,-,N/A,,Overcast,310,2013-03-22 03:14:00
11:34 PM,25.2,17.4,72,29.85,10.0,NW,11.5,20.7,N/A,,Overcast,310,2013-03-22 03:34:00
11:55 PM,24.8,17.2,73,29.86,10.0,NW,8.1,13.8,N/A,,Overcast,320,2013-03-22 03:55:00